Change the Weather History Date:

Thursday, June 13, 2013

  Actual Average Record
Temperature  
Mean Temperature 84 °F -  
Max Temperature 92 °F 88 °F 96 °F (1952)
Min Temperature 77 °F 72 °F 62 °F (1955)
Cooling Degree Days 18    
Growing Degree Days 34 (Base 50)    
Moisture  
Dew Point 74 °F    
Average Humidity 71    
Maximum Humidity 90    
Minimum Humidity 46    
Precipitation  
Precipitation 0.00 in - - ()
Sea Level Pressure  
Sea Level Pressure 29.99 in    
Wind  
Wind Speed 6 mph (WSW)    
Max Wind Speed 15 mph    
Max Gust Speed -    
Visibility 10 miles    
Events      
Averages and records for this station are not official NWS values.
T = Trace of Precipitation, MM = Missing Value Source: NWS Daily Summary

Daily Weather History Graph

Daily Weather History Graph

Search for Another Location

Airport or City:

Trip Planner

Search our weather history database for the weather conditions in past years. The results will help you decide how hot, cold, wet, or windy it might be!

Date:

Astronomy

Jun. 13, 2013 Rise Set
Actual Time 5:53 AM CDT 7:58 PM CDT
Civil Twilight 5:25 AM CDT 8:26 PM CDT
Nautical Twilight 4:51 AM CDT 8:59 PM CDT
Astronomical Twilight 4:16 AM CDT 9:35 PM CDT
Moon 10:14 AM CDT (6/13) 11:23 PM CDT (6/13)
Length of Visible Light 15h 00m
Length of Day
14h 05m
Waxing Crescent, 22% of the Moon is Illuminated
Jun 13
Waxing Crescent
Jun 16
First Quarter
Jun 23
Full
Jun 29
Last Quarter
Jul 8
New

Hourly Weather History & Observations

Time (CDT) Temp. Heat Index Dew Point Humidity Pressure Visibility Wind Dir Wind Speed Gust Speed Precip Events Conditions
12:58 AM 82.2 °F 88.0 °F 73.8 °F 75% 30.03 in 10.0 mi WSW 6.9 mph - N/A   Clear
1:58 AM 81.1 °F 87.8 °F 76.1 °F 85% 30.02 in 10.0 mi Variable 3.5 mph - N/A   Clear
2:58 AM 80.2 °F 85.5 °F 75.2 °F 85% 30.01 in 10.0 mi Variable 3.5 mph - N/A   Clear
3:58 AM 79.9 °F - 76.1 °F 88% 30.01 in 10.0 mi Variable 3.5 mph - N/A   Clear
4:58 AM 79.2 °F - 75.7 °F 89% 30.01 in 10.0 mi Variable 3.5 mph - N/A   Clear
5:58 AM 77.9 °F - 74.7 °F 90% 30.03 in 10.0 mi Variable 2.3 mph - N/A   Clear
6:58 AM 79.0 °F - 75.0 °F 88% 30.04 in 10.0 mi Variable 2.3 mph - N/A   Clear
7:58 AM 81.7 °F 88.3 °F 75.2 °F 81% 30.06 in 10.0 mi Variable 2.3 mph - N/A   Clear
8:58 AM 84.7 °F 94.0 °F 75.9 °F 75% 30.07 in 10.0 mi Variable 2.3 mph - N/A   Clear
9:58 AM 87.1 °F 98.3 °F 76.8 °F 71% 30.06 in 10.0 mi Variable 4.6 mph - N/A   Clear
10:58 AM 88.7 °F 100.4 °F 76.5 °F 67% 30.05 in 10.0 mi Variable 5.8 mph - N/A   Clear
11:58 AM 90.9 °F 101.8 °F 75.2 °F 60% 30.04 in 10.0 mi Variable 3.5 mph - N/A   Clear
12:58 PM 90.0 °F 101.9 °F 76.1 °F 64% 30.02 in 10.0 mi SW 11.5 mph - N/A   Scattered Clouds
1:58 PM 90.3 °F 102.9 °F 76.5 °F 64% 30.00 in 10.0 mi WSW 13.8 mph - N/A   Clear
2:58 PM 90.1 °F 99.4 °F 74.3 °F 59% 29.97 in 10.0 mi WSW 15.0 mph - N/A   Clear
3:58 PM 90.5 °F 94.6 °F 68.4 °F 48% 29.95 in 10.0 mi WSW 11.5 mph - N/A   Clear
4:58 PM 90.3 °F 94.3 °F 68.4 °F 48% 29.93 in 10.0 mi WSW 12.7 mph - N/A   Clear
5:58 PM 89.8 °F 92.5 °F 66.6 °F 46% 29.91 in 10.0 mi WSW 11.5 mph - N/A   Clear
6:58 PM 88.2 °F 92.9 °F 69.8 °F 54% 29.90 in 10.0 mi WSW 10.4 mph - N/A   Clear
7:58 PM 86.0 °F 94.6 °F 74.7 °F 69% 29.90 in 10.0 mi WSW 5.8 mph - N/A   Clear
8:58 PM 82.2 °F 89.1 °F 75.0 °F 79% 29.90 in 10.0 mi Calm Calm - N/A   Clear
9:58 PM 82.8 °F 87.7 °F 71.6 °F 69% 29.90 in 10.0 mi West 3.5 mph - N/A   Clear
10:58 PM 81.7 °F 86.0 °F 71.4 °F 71% 29.92 in 10.0 mi West 2.3 mph - N/A   Clear
11:58 PM 82.4 °F 87.7 °F 72.5 °F 72% 29.92 in 10.0 mi WNW 2.3 mph - N/A   Clear